Hourly Data Report for October 05, 2012

All times are specified in Local Standard Time (LST). Add 1 hour to adjust for Daylight Saving Time where and when it is observed.

IQALUIT CLIMATE
NUNAVUT

63°44'50.000" N
68°32'40.000" W
33.50 m
2402592
71321
XFB

Download Data

Hourly Data (October 2012)
Hourly Data Report for October 5, 2012
Temp Definition
°C
Dew Point Temp Definition
°C
Rel Hum Definition
%
Wind Dir Definition
10's deg

Wind Spd Definition
km/h
Visibility Definition
km
Stn Press Definition
kPa
Hmdx Definition


Wind Chill Definition


Weather Definition


TIME
00:00 -2.5 -5.6 79 31 20   101.83   -8 LegendNANA
01:00 -2.8 -5.3 83 33 11   101.81   -7 LegendNANA
02:00 -2.4 -6.6 73 31 13   101.80   -7 LegendNANA
03:00 -2.6 -7.2 71 30 15   101.77   -8 LegendNANA
04:00 -2.8 -5.9 79 32 7   101.76   -6 LegendNANA
05:00 -2.9 -5.9 80 31 9   101.76   -6 LegendNANA
06:00 -2.5 -5.6 79 31 11   101.75   -7 LegendNANA
07:00 -2.2 -4.7 83 31 20   101.75   -8 LegendNANA
08:00 -0.8 -4.9 74 31 28   101.73   -7 LegendNANA
09:00 -0.4 -6.2 65 31 24   101.69   -6 LegendNANA
10:00 0.4 -6.9 58 30 22   101.65     LegendNANA
11:00 0.5 -6.2 61 30 22   101.61     LegendNANA
12:00 0.9 -6.5 58 31 24   101.59     LegendNANA
13:00 0.0 -6.3 63 31 28   101.59   -6 LegendNANA
14:00 0.4 -5.6 64 31 30   101.57     LegendNANA
15:00 0.3 -5.7 64 31 24   101.57     LegendNANA
16:00 -0.2 -4.6 72 32 15   101.56   -5 LegendNANA
17:00 -1.2 -3.6 84 32 24   101.56   -7 LegendNANA
18:00 -2.5 -4.8 84 36 11   101.58   -7 LegendNANA
19:00 -3.2 -4.7 89 33 9   101.60   -7 LegendNANA
20:00 -4.2 -5.8 89 31 6   101.59   -7 LegendNANA
21:00 -3.7 -4.6 93 30 6   101.59   -6 LegendNANA
22:00 -4.3 -5.1 94 32 11   101.58   -9 LegendNANA
23:00 -6.2 -7.1 93 34 11   101.57   -11 LegendNANA

Notes on Data Quality.

Legend

  • E = Estimated
  • M = Missing
  • NA = Not Available
  • ‡ = Partner data that is not subject to review by the National Climate Archives
Date modified: